Breckenridge, USA 16 day weather forecast

Slopes altitude range 2925 m - 3915m

Number of lifts: 23 Pistes: 155km

In some cases the lift and piste totals shown are for the ski domain (e.g. Three Valleys) rather than individual resort (e.g. Courchevel)

Overview

The 16 day weather forecast is fully updated 4 times every day.

    • Wed 26 JUN 2019
    • Wed 26
    • 3C 4C
    • Thu 27 JUN 2019
    • Thu 27
    • 4C 5C
    • Fri 28 JUN 2019
    • Fri 28
    • 4C 6C
    • Sat 29 JUN 2019
    • Sat 29
    • 7C 10C
    • Sun 30 JUN 2019
    • Sun 30
    • 5C 6C
    • Mon 01 JUL 2019
    • Mon 01
    • 4C 6C
    • Tue 02 JUL 2019
    • Tue 02
    • 4C 5C
    • Wed 03 JUL 2019
    • Wed 03
    • 3C 5C
    • Thu 04 JUL 2019
    • Thu 04
    • 7C 9C
    • Fri 05 JUL 2019
    • Fri 05
    • 7C 10C
    • Sat 06 JUL 2019
    • Sat 06
    • 7C 10C
    • Sun 07 JUL 2019
    • Sun 07
    • 7C 10C
    • Mon 08 JUL 2019
    • Mon 08
    • 8C 10C
    • Tue 09 JUL 2019
    • Tue 09
    • 7C 9C
    • Wed 10 JUL 2019
    • Wed 10
    • 7C 10C
    • Thu 11 JUL 2019
    • Thu 11
    • 7C 10C

Date:

Time Type 0°C level Temp Chill Snow Cloud Speed Gust Dir Press
3:00 4666m 5°C 5_5 0cm 41% 5mph 6mph 1016mB
6:00 4667m 3°C 3_2 0cm 46% 2mph 4mph 1018mB
9:00 4709m 3°C 3_4 0cm 3% 4mph 5mph 1018mB
12:00 4670m 4°C 4_5 0cm 43% 5mph 6mph 1018mB
15:00 4625m 14°C 14_8 0cm 100% 8mph 17mph 1016mB
18:00 4760m 17°C 17_14 0cm 94% 14mph 18mph 1014mB
21:00 4873m 17°C 17_14 0cm 100% 14mph 19mph 1013mB
0:00 4826m 16°C 16_15 0cm 98% 15mph 23mph 1014mB
3:00 4838m 6°C 6_3 0cm 57% 3mph 4mph 1017mB
6:00 4826m 5°C 5_2 0cm 29% 2mph 3mph 1019mB
9:00 4715m 4°C 4_4 0cm 0% 4mph 5mph 1021mB
12:00 4632m 5°C 5_3 0cm 0% 3mph 5mph 1022mB
15:00 4558m 13°C 13_14 0cm 65% 14mph 26mph 1019mB
18:00 4754m 17°C 17_17 0cm 34% 17mph 23mph 1017mB
21:00 4966m 17°C 17_13 0cm 14% 13mph 19mph 1016mB
0:00 4952m 17°C 17_10 0cm 52% 10mph 13mph 1015mB
3:00 4897m 8°C 8_1 0cm 61% 1mph 3mph 1019mB
6:00 4895m 6°C 6_2 0cm 31% 2mph 3mph 1020mB
9:00 4754m 5°C 5_5 0cm 0% 5mph 6mph 1021mB
12:00 4809m 6°C 6_4 0cm 0% 4mph 5mph 1022mB
15:00 4964m 15°C 15_9 0cm 3% 9mph 21mph 1020mB
18:00 4924m 19°C 19_13 0cm 1% 13mph 17mph 1018mB
21:00 5095m 19°C 19_11 0cm 0% 11mph 14mph 1016mB
0:00 5096m 19°C 19_10 0cm 6% 10mph 10mph 1015mB
3:00 5045m 9°C 9_2 0cm 3% 2mph 3mph 1018mB
6:00 4946m 8°C 8_3 0cm 27% 3mph 4mph 1020mB
9:00 4898m 8°C 8_3 0cm 88% 3mph 4mph 1021mB
12:00 4885m 10°C 10_5 0cm 94% 5mph 14mph 1022mB
15:00 4970m 16°C 16_3 0cm 100% 3mph 8mph 1020mB
18:00 4995m 20°C 20_5 0cm 99% 5mph 7mph 1018mB
21:00 4893m 9°C 9_3 0cm 100% 3mph 7mph 1017mB
0:00 4655m 8°C 8_4 0cm 100% 4mph 6mph 1019mB
3:00 4683m 5°C 5_6 0cm 100% 6mph 6mph 1022mB
6:00 4975m 4°C 4_2 0cm 96% 2mph 3mph 1022mB
9:00 4998m 5°C 5_1 0cm 100% 1mph 2mph 1021mB
12:00 4828m 6°C 6_3 0cm 100% 3mph 3mph 1022mB
15:00 4777m 11°C 11_5 0cm 81% 5mph 6mph 1020mB
18:00 4765m 19°C 19_2 0cm 55% 2mph 4mph 1017mB
21:00 4801m 11°C 11_4 0cm 98% 4mph 5mph 1016mB
0:00 4700m 9°C 9_5 0cm 99% 5mph 7mph 1017mB
3:00 4827m 6°C 6_1 0cm 100% 1mph 2mph 1020mB
6:00 4859m 5°C 5_2 0cm 100% 2mph 2mph 1020mB
9:00 4839m 5°C 5_3 0cm 100% 3mph 4mph 1020mB
12:00 4531m 6°C 6_1 0cm 64% 1mph 3mph 1020mB
15:00 4508m 12°C 12_4 0cm 79% 4mph 10mph 1018mB
18:00 4679m 18°C 18_2 0cm 73% 2mph 5mph 1016mB
21:00 4622m 11°C 11_3 0cm 100% 3mph 4mph 1014mB
0:00 4659m 6°C 6_4 0cm 100% 4mph 6mph 1015mB
3:00 4801m 7°C 7_1 0cm 100% 1mph 2mph 1017mB
6:00 4725m 5°C 5_2 0cm 100% 2mph 3mph 1017mB
9:00 4698m 4°C 4_1 0cm 96% 1mph 3mph 1016mB
12:00 4621m 5°C 5_1 0cm 74% 1mph 2mph 1016mB
15:00 4617m 13°C 13_4 0cm 0% 4mph 12mph 1014mB
18:00 4732m 17°C 17_8 0cm 17% 8mph 9mph 1012mB
21:00 4722m 15°C 15_9 0cm 100% 9mph 11mph 1010mB
0:00 4783m 14°C 14_13 0cm 75% 13mph 18mph 1010mB
3:00 4666m 7°C 7_3 0cm 6% 3mph 3mph 1013mB
6:00 4658m 5°C 5_2 0cm 11% 2mph 3mph 1014mB
9:00 4619m 4°C 4_3 0cm 0% 3mph 5mph 1014mB
12:00 4589m 5°C 5_1 0cm 0% 1mph 3mph 1015mB
15:00 4605m 16°C 16_3 0cm 0% 3mph 4mph 1013mB
18:00 4668m 21°C 21_9 0cm 0% 9mph 13mph 1010mB
21:00 4780m 21°C 21_12 0cm 1% 12mph 15mph 1009mB
0:00 4726m 20°C 20_9 0cm 32% 9mph 12mph 1009mB
3:00 4705m 12°C 12_5 0cm 50% 5mph 6mph 1013mB
6:00 4709m 9°C 9_5 0cm 60% 5mph 6mph 1015mB
9:00 4663m 7°C 7_4 0cm 0% 4mph 5mph 1015mB
12:00 4644m 9°C 9_4 0cm 0% 4mph 4mph 1016mB
15:00 4610m 18°C 18_3 0cm 0% 3mph 4mph 1015mB
18:00 4725m 22°C 22_9 0cm 0% 9mph 12mph 1013mB
21:00 4879m 22°C 22_11 0cm 2% 11mph 13mph 1012mB
0:00 4935m 22°C 22_11 0cm 12% 11mph 14mph 1011mB
3:00 4904m 12°C 12_2 0cm 1% 2mph 3mph 1014mB
6:00 4825m 10°C 10_5 0cm 1% 5mph 6mph 1018mB
9:00 4818m 8°C 8_4 0cm 0% 4mph 5mph 1019mB
12:00 4850m 10°C 10_3 0cm 0% 3mph 4mph 1019mB
15:00 4826m 18°C 18_2 0cm 0% 2mph 2mph 1018mB
18:00 4852m 23°C 23_10 0cm 0% 10mph 11mph 1015mB
21:00 4988m 22°C 22_13 0cm 4% 13mph 16mph 1014mB
0:00 5028m 22°C 22_12 0cm 19% 12mph 15mph 1015mB
Afternoon 0mm 0 4799m 10°C 10_3 0cm 0% 3mph 4mph 1021mB
Morning 0.0208333mm 0 4961m 22°C 22_9 0cm 18% 9mph 11mph 1015mB
Afternoon 0mm 0 4828m 10°C 10_2 0cm 32% 2mph 2mph 1020mB
Morning 0.104167mm 0.1875 4957m 21°C 21_7 0cm 31% 7mph 8mph 1015mB
Afternoon 0mm 0 4817m 10°C 10_3 0cm 44% 3mph 4mph 1021mB
Morning 0.520833mm 0.4375 4680m 14°C 14_8 0cm 83% 8mph 16mph 1017mB
Afternoon 0mm 0 4924m 9°C 9_1 0cm 70% 1mph 1mph 1020mB
Morning 0.458333mm 0.9375 4978m 15°C 15_15 0cm 76% 15mph 20mph 1014mB
Afternoon 0mm 0 5022m 10°C 10_2 0cm 97% 2mph 3mph 1020mB
Morning 1.16667mm 1.6875 5004m 11°C 11_7 0cm 78% 7mph 9mph 1015mB
Afternoon 0mm 0 4869m 10°C 10_2 0cm 78% 2mph 3mph 1022mB
Morning 1.08333mm 2.875 4931m 16°C 16_1 0cm 85% 1mph 4mph 1018mB

16 day outlook at a glance

Forecast issued: 6/26/2019 7:55:23 AM

Chat

Your comments and questions. In a resort? Let us know what it's like!


Characters left 250

For terms and conditions see Readers Comments on the Cookie and privacy policy page.